Weather reports worldwide

Advertisment
Hemavan A, Sweden (2101): temperature & dewpoint: 23.05.2020 00:00:00 - 29.05.2020 00:00:00 (CEST)Hemavan A, Sweden (2101): wind speed: 23.05.2020 00:00:00 - 29.05.2020 00:00:00 (CEST)Hemavan A, Sweden (2101): wind direction: 23.05.2020 00:00:00 - 29.05.2020 00:00:00 (CEST)Hemavan A, Sweden (2101): reduced air pressure: 23.05.2020 00:00:00 - 29.05.2020 00:00:00 (CEST)Hemavan A, Sweden (2101): visibility: 23.05.2020 00:00:00 - 29.05.2020 00:00:00 (CEST)
Date & Time tt [°C] td [°C] ff [km/h] ff [kn] dd ppp [hPa] vv [km]
29.05.2020 00:00:00 2,3 1,8 0 0 N 1027,4 8
28.05.2020 23:00:00 1,9 1,3 0 0 N 1027,5 5
28.05.2020 22:00:00 2,5 1,6 0 0 N 1027,5 6
28.05.2020 21:00:00 3,4 1,0 4 2 N 1027,2 12
28.05.2020 20:00:00 3,7 0,9 4 2 N 1027,3 50
28.05.2020 19:00:00 3,6 1,2 4 2 N 1027,1 50
28.05.2020 18:00:00 3,6 0,8 14 8 WNW 1026,8 50
28.05.2020 17:00:00 3,9 0,8 11 6 WNW 1026,6 50
28.05.2020 16:00:00 3,8 2,2 4 2 NW 1026,5 12
28.05.2020 15:00:00 3,9 1,1 7 4 NW 1026,2 11
28.05.2020 14:00:00 4,5 1,9 7 4 NW 1025,8 19
28.05.2020 13:00:00 4,4 1,8 7 4 NW 1025,7 40
28.05.2020 12:00:00 3,6 1,3 7 4 NW 1025,8 30
28.05.2020 11:00:00 3,2 1,4 11 6 NW 1025,6 45
28.05.2020 10:00:00 3,1 1,9 7 4 NW 1025,3 11
28.05.2020 09:00:00 2,7 1,2 0 0 N 1025,2 40
28.05.2020 08:00:00 2,8 1,3 0 0 N 1025,0 9
28.05.2020 07:00:00 2,4 1,2 4 2 S 1025,0 9
28.05.2020 06:00:00 2,2 1,0 4 2 SE 1025,1 20
28.05.2020 05:00:00 1,7 -0,1 0 0 N 1025,5 14
28.05.2020 04:00:00 2,4 0,3 4 2 ENE 1025,7 30
28.05.2020 03:00:00 1,4 -0,2 0 0 N 1025,8 27
28.05.2020 02:00:00 2,9 0,0 4 2 E 1025,6 30
28.05.2020 01:00:00 2,8 0,2 4 2 NE 1025,9 26
28.05.2020 00:00:00 - - - - - - -
27.05.2020 23:00:00 3,0 0,1 0 0 N 1025,8 29
27.05.2020 22:00:00 3,2 -0,1 7 4 W 1025,6 30
27.05.2020 21:00:00 3,4 -0,1 11 6 WNW 1025,4 45
27.05.2020 20:00:00 4,0 0,3 11 6 WNW 1025,0 30
27.05.2020 19:00:00 4,6 1,1 4 2 WNW 1025,0 45
27.05.2020 18:00:00 4,2 2,2 7 4 NW 1025,2 50
27.05.2020 17:00:00 4,3 1,3 11 6 NW 1024,9 50
27.05.2020 16:00:00 3,9 1,6 14 8 W 1024,9 4,3
27.05.2020 15:00:00 5,3 1,6 7 4 WNW 1024,2 50
27.05.2020 14:00:00 5,6 1,3 4 2 WNW 1024,2 50
27.05.2020 13:00:00 5,2 1,1 11 6 W 1024,4 29
27.05.2020 12:00:00 5,4 1,5 4 2 WNW 1024,3 30
27.05.2020 11:00:00 5,8 1,3 4 2 NW 1023,9 30
27.05.2020 10:00:00 4,7 1,0 7 4 W 1024,7 11
27.05.2020 09:00:00 4,7 1,0 4 2 W 1024,6 40
27.05.2020 08:00:00 4,0 1,2 4 2 WSW 1025,0 30
27.05.2020 07:00:00 5,1 1,9 4 2 NNW 1024,8 12
27.05.2020 06:00:00 4,8 1,1 4 2 NNE 1024,9 19
27.05.2020 05:00:00 5,2 1,1 4 2 SSW 1025,3 28
27.05.2020 04:00:00 4,2 1,9 7 4 E 1025,8 40
27.05.2020 03:00:00 4,9 1,9 4 2 WSW 1025,7 45
27.05.2020 02:00:00 4,4 1,9 0 0 N 1025,7 35
27.05.2020 01:00:00 3,9 1,4 4 2 NNE 1026,1 50
27.05.2020 00:00:00 4,1 1,3 4 2 ESE 1026,7 50
26.05.2020 23:00:00 4,8 1,1 0 0 N 1026,2 50
26.05.2020 22:00:00 5,8 0,9 0 0 N 1025,9 35
26.05.2020 21:00:00 7,1 2,0 4 2 NNE 1025,9 50
26.05.2020 20:00:00 8,3 0,8 0 0 N 1025,8 50
26.05.2020 19:00:00 8,6 1,5 7 4 N 1025,9 40
26.05.2020 18:00:00 9,6 1,2 7 4 NW 1025,9 50
26.05.2020 17:00:00 9,4 0,8 11 6 WNW 1026,5 50
26.05.2020 16:00:00 10,1 1,5 7 4 NNW 1026,8 50
26.05.2020 15:00:00 10,5 1,6 7 4 SW 1027,1 45
26.05.2020 14:00:00 10,5 1,6 7 4 SSE 1027,4 50
26.05.2020 13:00:00 10,4 1,7 4 2 SSE 1027,9 50
26.05.2020 12:00:00 8,7 0,7 11 6 S 1028,5 45
26.05.2020 11:00:00 9,1 1,0 11 6 SE 1028,7 50
26.05.2020 10:00:00 7,1 0,5 4 2 NW 1029,8 50
26.05.2020 09:00:00 5,8 0,7 4 2 NW 1030,2 45
26.05.2020 08:00:00 4,5 0,8 0 0 N 1030,4 50
26.05.2020 07:00:00 1,9 0,1 4 2 NW 1031,6 40
26.05.2020 06:00:00 1,4 0,2 4 2 ESE 1031,8 50
26.05.2020 05:00:00 -1,3 -1,7 4 2 S 1032,5 45
26.05.2020 04:00:00 -1,7 -2,0 0 0 N 1032,7 50
26.05.2020 03:00:00 -1,5 -1,9 0 0 N 1032,8 50
26.05.2020 02:00:00 -1,3 -1,9 0 0 N 1032,7 45
26.05.2020 01:00:00 0,7 0,0 0 0 N 1032,4 50
26.05.2020 00:00:00 1,3 0,0 4 2 SE 1032,4 50
25.05.2020 23:00:00 2,9 0,6 0 0 N 1032,3 50
25.05.2020 22:00:00 4,2 1,1 0 0 N 1031,8 50
25.05.2020 21:00:00 6,0 2,5 4 2 WSW 1031,3 50
25.05.2020 20:00:00 7,0 2,5 4 2 E 1031,1 50
25.05.2020 19:00:00 7,1 3,0 4 2 NNW 1030,7 50
25.05.2020 18:00:00 6,3 2,6 11 6 NW 1031,0 45
25.05.2020 17:00:00 6,7 2,4 7 4 WNW 1030,5 45
25.05.2020 16:00:00 7,3 3,0 7 4 NW 1030,2 40
25.05.2020 15:00:00 7,8 3,3 4 2 ENE 1029,6 40
25.05.2020 14:00:00 6,6 3,4 11 6 W 1029,6 50
25.05.2020 13:00:00 6,9 3,1 11 6 W 1029,0 50
25.05.2020 12:00:00 8,2 3,3 4 2 NNW 1027,8 45
25.05.2020 11:00:00 6,2 2,6 4 2 W 1027,6 50
25.05.2020 10:00:00 5,8 3,0 0 0 N 1026,9 45
25.05.2020 09:00:00 4,9 2,3 4 2 W 1026,4 50
25.05.2020 08:00:00 4,5 2,4 0 0 N 1025,6 50
25.05.2020 07:00:00 3,8 1,8 0 0 N 1025,1 50
25.05.2020 06:00:00 2,5 1,3 4 2 W 1024,7 50
25.05.2020 05:00:00 2,2 1,3 0 0 N 1024,0 50
25.05.2020 04:00:00 2,0 1,1 0 0 N 1023,2 50
25.05.2020 03:00:00 1,3 0,7 4 2 S 1022,6 50
25.05.2020 02:00:00 2,4 1,8 0 0 N 1021,8 50
25.05.2020 01:00:00 1,9 1,0 0 0 N 1021,4 45
25.05.2020 00:00:00 3,3 1,8 4 2 SE 1020,4 50
24.05.2020 23:00:00 4,4 1,8 4 2 ESE 1019,5 50
24.05.2020 22:00:00 4,9 1,9 7 4 SSE 1018,9 50
24.05.2020 21:00:00 5,4 2,4 7 4 SE 1018,0 50
24.05.2020 20:00:00 5,3 2,0 7 4 S 1017,3 50
24.05.2020 19:00:00 5,9 2,0 7 4 SE 1016,3 50
24.05.2020 18:00:00 6,1 2,0 14 8 SE 1015,7 50
24.05.2020 17:00:00 6,4 2,1 14 8 ESE 1015,4 50
24.05.2020 16:00:00 6,2 1,9 14 8 SE 1014,6 50
24.05.2020 15:00:00 5,3 2,3 18 10 SSE 1014,5 30
24.05.2020 14:00:00 5,5 2,0 14 8 SE 1014,1 50
24.05.2020 13:00:00 5,1 0,8 14 8 SSE 1013,6 50
24.05.2020 12:00:00 4,2 1,1 7 4 SSW 1013,5 50
24.05.2020 11:00:00 4,5 1,4 14 8 SE 1013,3 30
24.05.2020 10:00:00 4,2 1,2 22 12 SE 1012,8 50
24.05.2020 09:00:00 3,9 0,9 18 10 SE 1012,6 50
24.05.2020 08:00:00 3,7 0,9 14 8 SE 1012,5 50
24.05.2020 07:00:00 3,5 0,2 22 12 SE 1011,9 50
24.05.2020 06:00:00 3,4 1,1 14 8 SE 1012,1 50
24.05.2020 05:00:00 3,7 0,9 11 6 S 1012,0 50
24.05.2020 04:00:00 3,7 1,2 11 6 SE 1011,7 50
24.05.2020 03:00:00 4,1 1,3 11 6 SE 1011,4 50
24.05.2020 02:00:00 4,7 2,2 14 8 SE 1011,0 50
24.05.2020 01:00:00 4,6 2,0 11 6 SE 1011,1 50
24.05.2020 00:00:00 4,7 2,7 25 14 SE 1011,2 50
23.05.2020 23:00:00 4,9 3,0 18 10 SE 1011,4 50
23.05.2020 22:00:00 5,0 3,0 18 10 SE 1011,5 9
23.05.2020 21:00:00 5,2 2,7 18 10 SE 1011,4 50
23.05.2020 20:00:00 4,8 2,3 14 8 SSE 1011,5 50
23.05.2020 19:00:00 5,6 2,9 14 8 ESE 1011,1 50
23.05.2020 18:00:00 5,7 2,7 22 12 SE 1011,5 45
23.05.2020 17:00:00 6,6 3,0 29 16 SE 1010,9 50
23.05.2020 16:00:00 5,9 2,0 29 16 SSE 1011,1 50
23.05.2020 15:00:00 6,1 2,7 36 19 SE 1011,1 50
23.05.2020 14:00:00 7,1 2,4 36 19 SE 1010,6 50
23.05.2020 13:00:00 6,0 1,1 29 16 SSE 1011,0 21
23.05.2020 12:00:00 7,8 0,7 40 21 SE 1010,1 50
23.05.2020 11:00:00 7,8 0,7 40 21 SE 1010,1 50
23.05.2020 10:00:00 7,9 0,1 36 19 ESE 1010,2 35
23.05.2020 09:00:00 7,5 -0,5 25 14 SE 1010,9 50
23.05.2020 08:00:00 6,2 -1,5 29 16 SSE 1011,3 50
23.05.2020 07:00:00 5,8 -1,8 25 14 SSE 1011,4 50
23.05.2020 06:00:00 5,9 -2,2 25 14 SSE 1011,9 50
23.05.2020 05:00:00 5,9 -2,0 7 4 SSE 1012,8 50
23.05.2020 04:00:00 6,0 -1,6 7 4 ESE 1013,6 50
23.05.2020 03:00:00 7,4 -2,9 0 0 N 1013,7 50
23.05.2020 02:00:00 7,7 -2,9 7 4 S 1013,8 50
23.05.2020 01:00:00 8,0 -2,3 25 14 SE 1014,2 50
23.05.2020 00:00:00 8,7 -2,3 32 18 SE 1014,4 50

tt = temperature
td = dewpoint
ff = wind speed
dd = wind direction
ppp = reduced air pressure
vv = visibility

Next stations